Time,TemperatureF,DewpointF,PressureIn,WindDirection,WindDirectionDegrees,WindSpeedMPH,WindSpeedGustMPH,Humidity,HourlyPrecipIn,Conditions,Clouds,dailyrainin,SoftwareType,DateUTC
2013-01-21 02:12:00,13.0,13.0,-100.00,NW,315,3.0,4.0,98,-99.99,,,0.00,,2013-01-21 09:12:00,
2013-01-21 02:52:00,13.0,13.0,-100.00,NW,315,3.0,4.0,98,-99.99,,,0.00,,2013-01-21 09:52:00,
2013-01-21 03:02:00,13.0,13.0,-100.00,NW,315,3.0,4.0,98,-99.99,,,0.00,,2013-01-21 10:02:00,
2013-01-21 04:00:00,12.0,12.0,-100.00,North,-999,0.0,0.0,99,-99.99,,,0.00,,2013-01-21 11:00:00,
2013-01-21 04:30:00,10.0,10.0,-100.00,East,100,1.0,1.0,98,-99.99,,,0.00,,2013-01-21 11:30:00,
2013-01-21 04:32:00,12.0,12.0,-100.00,North,-999,0.0,0.0,99,-99.99,,,0.00,,2013-01-21 11:32:00,
2013-01-21 04:42:00,12.0,12.0,-100.00,North,-999,0.0,0.0,99,-99.99,,,0.00,,2013-01-21 11:42:00,
2013-01-21 04:53:00,12.0,12.0,-100.00,North,-999,0.0,0.0,99,-99.99,,,0.00,,2013-01-21 11:53:00,
2013-01-21 05:00:00,15.0,14.0,-100.00,West,280,3.0,3.0,99,-99.99,,,0.00,,2013-01-21 12:00:00,
2013-01-21 05:12:00,10.0,10.0,-100.00,East,100,1.0,1.0,98,-99.99,,,0.00,,2013-01-21 12:12:00,
2013-01-21 05:22:00,10.0,10.0,-100.00,East,100,1.0,1.0,98,-99.99,,,0.00,,2013-01-21 12:22:00,
2013-01-21 05:52:00,15.0,14.0,-100.00,West,280,3.0,3.0,99,-99.99,,,0.00,,2013-01-21 12:52:00,
2013-01-21 06:12:00,15.0,15.0,-100.00,West,270,4.0,5.0,99,-99.99,,,0.00,,2013-01-21 13:12:00,
2013-01-21 06:23:00,15.0,15.0,-100.00,West,270,4.0,5.0,99,-99.99,,,0.00,,2013-01-21 13:23:00,
2013-01-21 06:33:00,15.0,14.0,-100.00,NW,305,3.0,3.0,99,-99.99,,,0.00,,2013-01-21 13:33:00,
2013-01-21 06:42:00,15.0,14.0,-100.00,NW,305,3.0,3.0,99,-99.99,,,0.00,,2013-01-21 13:42:00,
2013-01-21 06:53:00,15.0,14.0,-100.00,NW,305,3.0,3.0,99,-99.99,,,0.00,,2013-01-21 13:53:00,
2013-01-21 07:00:00,17.0,17.0,-100.00,NW,305,2.0,3.0,99,-99.99,,,0.00,,2013-01-21 14:00:00,
2013-01-21 07:12:00,15.0,15.0,-100.00,West,275,2.0,3.0,99,-99.99,,,0.00,,2013-01-21 14:12:00,
2013-01-21 07:23:00,15.0,15.0,-100.00,West,275,2.0,3.0,99,-99.99,,,0.00,,2013-01-21 14:23:00,
2013-01-21 07:32:00,17.0,17.0,-100.00,NW,305,2.0,3.0,99,-99.99,,,0.00,,2013-01-21 14:32:00,
2013-01-21 07:43:00,17.0,17.0,-100.00,NW,305,2.0,3.0,99,-99.99,,,0.00,,2013-01-21 14:43:00,
2013-01-21 07:52:00,17.0,17.0,-100.00,NW,305,2.0,3.0,99,-99.99,,,0.00,,2013-01-21 14:52:00,
2013-01-21 08:00:00,14.0,13.0,-100.00,East,85,2.0,2.0,96,-99.99,,,0.00,,2013-01-21 15:00:00,
2013-01-21 08:13:00,18.0,18.0,-100.00,WNW,285,1.0,1.0,99,-99.99,,,0.00,,2013-01-21 15:13:00,
2013-01-21 08:23:00,18.0,18.0,-100.00,WNW,285,1.0,1.0,99,-99.99,,,0.00,,2013-01-21 15:23:00,
2013-01-21 08:33:00,14.0,13.0,-100.00,East,85,2.0,2.0,96,-99.99,,,0.00,,2013-01-21 15:33:00,
2013-01-21 08:42:00,14.0,13.0,-100.00,East,85,2.0,2.0,96,-99.99,,,0.00,,2013-01-21 15:42:00,
2013-01-21 08:52:00,14.0,13.0,-100.00,East,85,2.0,2.0,96,-99.99,,,0.00,,2013-01-21 15:52:00,
2013-01-21 09:00:00,13.0,12.0,-100.00,North,-999,0.0,0.0,94,-99.99,,,0.00,,2013-01-21 16:00:00,
2013-01-21 09:12:00,18.0,17.0,-100.00,West,280,1.0,1.0,97,-99.99,,,0.00,,2013-01-21 16:12:00,
2013-01-21 09:23:00,18.0,17.0,-100.00,West,280,1.0,1.0,97,-99.99,,,0.00,,2013-01-21 16:23:00,
2013-01-21 09:30:00,22.0,18.0,-100.00,West,265,2.0,3.0,85,-99.99,,,0.00,,2013-01-21 16:30:00,
2013-01-21 09:33:00,13.0,12.0,-100.00,North,-999,0.0,0.0,94,-99.99,,,0.00,,2013-01-21 16:33:00,
2013-01-21 09:43:00,13.0,12.0,-100.00,North,-999,0.0,0.0,94,-99.99,,,0.00,,2013-01-21 16:43:00,
2013-01-21 09:53:00,13.0,12.0,-100.00,North,-999,0.0,0.0,94,-99.99,,,0.00,,2013-01-21 16:53:00,
2013-01-21 10:12:00,22.0,18.0,-100.00,West,265,2.0,3.0,85,-99.99,,,0.00,,2013-01-21 17:12:00,
2013-01-21 10:22:00,22.0,18.0,-100.00,West,265,2.0,3.0,85,-99.99,,,0.00,,2013-01-21 17:22:00,
2013-01-21 11:00:00,29.0,15.0,-100.00,West,265,4.0,7.0,57,-99.99,,,0.00,,2013-01-21 18:00:00,
2013-01-21 11:30:00,30.0,16.0,-100.00,NW,305,2.0,3.0,55,-99.99,,,0.00,,2013-01-21 18:30:00,
2013-01-21 11:33:00,29.0,15.0,-100.00,West,265,4.0,7.0,57,-99.99,,,0.00,,2013-01-21 18:33:00,
2013-01-21 11:42:00,29.0,15.0,-100.00,West,265,4.0,7.0,57,-99.99,,,0.00,,2013-01-21 18:42:00,
2013-01-21 11:52:00,29.0,15.0,-100.00,West,265,4.0,7.0,57,-99.99,,,0.00,,2013-01-21 18:52:00,
2013-01-21 12:12:00,30.0,16.0,-100.00,NW,305,2.0,3.0,55,-99.99,,,0.00,,2013-01-21 19:12:00,
2013-01-21 12:22:00,30.0,16.0,-100.00,NW,305,2.0,3.0,55,-99.99,,,0.00,,2013-01-21 19:22:00,
2013-01-21 13:12:00,23.0,17.0,-100.00,East,95,3.0,4.0,75,-99.99,,,0.00,,2013-01-21 20:12:00,
2013-01-21 13:22:00,23.0,17.0,-100.00,East,95,3.0,4.0,75,-99.99,,,0.00,,2013-01-21 20:22:00,
2013-01-21 13:30:00,32.0,19.0,-100.00,West,275,6.0,8.0,56,-99.99,,,0.00,,2013-01-21 20:30:00,
2013-01-21 13:52:00,30.0,20.0,-100.00,NW,305,3.0,3.0,68,-99.99,,,-99.99,,2013-01-21 20:52:00,
2013-01-21 14:12:00,32.0,19.0,-100.00,West,275,6.0,8.0,56,-99.99,,,0.00,,2013-01-21 21:12:00,
2013-01-21 14:22:00,32.0,19.0,-100.00,West,275,6.0,8.0,56,-99.99,,,0.00,,2013-01-21 21:22:00,
2013-01-21 15:12:00,35.0,16.0,-100.00,West,265,3.0,4.0,46,-99.99,,,0.00,,2013-01-21 22:12:00,
2013-01-21 15:23:00,35.0,16.0,-100.00,West,265,3.0,4.0,46,-99.99,,,0.00,,2013-01-21 22:23:00,
2013-01-21 15:33:00,35.0,16.0,-100.00,West,265,3.0,4.0,46,-99.99,,,-99.99,,2013-01-21 22:33:00,
2013-01-21 15:42:00,35.0,16.0,-100.00,West,265,3.0,4.0,46,-99.99,,,-99.99,,2013-01-21 22:42:00,
2013-01-21 15:52:00,35.0,16.0,-100.00,West,265,3.0,4.0,46,-99.99,,,-99.99,,2013-01-21 22:52:00,
2013-01-21 16:00:00,32.0,16.0,-100.00,West,275,5.0,6.0,52,-99.99,,,0.00,,2013-01-21 23:00:00,
2013-01-21 16:12:00,34.0,16.0,-100.00,West,275,4.0,6.0,47,-99.99,,,0.00,,2013-01-21 23:12:00,
2013-01-21 16:22:00,34.0,16.0,-100.00,West,275,4.0,6.0,47,-99.99,,,0.00,,2013-01-21 23:22:00,
2013-01-21 16:33:00,32.0,16.0,-100.00,West,275,5.0,6.0,52,-99.99,,,0.00,,2013-01-21 23:33:00,
2013-01-21 16:42:00,32.0,16.0,-100.00,West,275,5.0,6.0,52,-99.99,,,0.00,,2013-01-21 23:42:00,
2013-01-21 16:52:00,32.0,16.0,-100.00,West,275,5.0,6.0,52,-99.99,,,0.00,,2013-01-21 23:52:00,
2013-01-21 17:12:00,31.0,16.0,-100.00,WNW,285,6.0,9.0,52,-99.99,,,0.00,,2013-01-22 00:12:00,
2013-01-21 17:22:00,31.0,16.0,-100.00,WNW,285,6.0,9.0,52,-99.99,,,0.00,,2013-01-22 00:22:00,
2013-01-21 17:30:00,29.0,14.0,-100.00,WNW,295,3.0,4.0,53,-99.99,,,0.00,,2013-01-22 00:30:00,
2013-01-21 17:32:00,29.0,14.0,-100.00,NW,305,4.0,4.0,53,-99.99,,,0.00,,2013-01-22 00:32:00,
2013-01-21 17:42:00,29.0,14.0,-100.00,NW,305,4.0,4.0,53,-99.99,,,0.00,,2013-01-22 00:42:00,
2013-01-21 17:53:00,29.0,14.0,-100.00,NW,305,4.0,4.0,53,-99.99,,,0.00,,2013-01-22 00:53:00,
2013-01-21 18:12:00,29.0,14.0,-100.00,WNW,295,3.0,4.0,53,-99.99,,,0.00,,2013-01-22 01:12:00,
2013-01-21 18:23:00,29.0,14.0,-100.00,WNW,295,3.0,4.0,53,-99.99,,,0.00,,2013-01-22 01:23:00,
2013-01-21 20:11:00,28.0,13.0,-100.00,West,270,6.0,7.0,53,-99.99,,,0.00,,2013-01-22 03:11:00,
2013-01-21 20:52:00,28.0,13.0,-100.00,West,270,6.0,7.0,53,-99.99,,,0.00,,2013-01-22 03:52:00,
2013-01-21 21:02:00,28.0,13.0,-100.00,West,270,6.0,7.0,53,-99.99,,,0.00,,2013-01-22 04:02:00,
2013-01-21 23:11:00,28.0,13.0,-100.00,West,270,4.0,6.0,53,-99.99,,,-99.99,,2013-01-22 06:11:00,
2013-01-21 23:52:00,28.0,13.0,-100.00,West,270,4.0,6.0,53,-99.99,,,-99.99,,2013-01-22 06:52:00,